星链-31397 (STARLINK-31397 )

导读

STARLINK-31397是美国SpaceX公司星链星座中的一颗卫星,于北京时间2024年4月18日8时发射升空。星链项目旨在构建全球卫星互联网星座,为全球偏远地区、海洋等网络覆盖薄弱区域提供高速互联网接入服务,这颗卫星入轨后将进一步扩充星链星座的网络服务能力,提升星座覆盖范围与服务稳定性。

Basic Information
目录编号:
59540
目录名称:
STARLINK-31397
国际标识:
2024-074G
轨道中心:
EARTH
卫星名称:
星链-31397
卫星全名:
星链-31397 (STARLINK-31397 )
卫星状态:
在轨 (已飞行876 天)
发射日期:
2024-04-18 UTC
国别 :
美国 (US)
星等 :
--
This satellite is enrolled in the Space Conjunction Data Service (SCDS) and the current flight risk assessment level is: No High Risk
Orbit Information
数据来源 国际轨道数据
星历时间: 2026-09-09T23:17:48+0800
2天前
查看轨道信息
半长轴: 6861.174km
偏心率: 0.0001678
轨道倾角: 43.005°
近地点辐角 270.169°
升交点赤经 24.948°
平近点角 89.897°
近地点: 481.885km
远地点: 484.189km
周期: 94.266分钟
每日圈数: 15.275841
Detailed Information
固有亮度:
5
最大亮度:
1.5
卫星平台:
Starlink v2.0 mini
覆盖范围:
全球
运营商:
太空探索技术公司
运营商所在国:
美国
制造商(研发单位):
太空探索技术公司
制造商所在国:
美国
使用方式:
暂无
Satellite Introduction
星链(Starlink)计划是由太空探索技术公司(SpaceX)提出的一个巨型低轨卫星互联网星座项目,计划在2019年至2024年间在太空搭建由约1.2万颗卫星组成的“星链”网络,其中1584颗将部署在地球上空550千米处的近地轨道,并从2020年开始工作。该卫星仍在工作。
2D Orbit Map
3D Orbit Map
Orbit Altitude Analysis Chart
Orbit Inclination Analysis Chart
Orbit Comprehensive Analysis Chart
View Comprehensive Chart
Conjunction Data List
Event ID Objects TCA Miss Dist (km) Collision Risk Probability Collision Risk Index (CRI) Action
CDM_260913-232105-234105-954021
2026-09-13T
23:21:25+0000
0.933 km
远距离
2.130204E-5 中风险 0.62
CDM_260912-181505-954006-401421
2026-09-12T
18:15:08+0000
0.863 km
远距离
9.211024E-6 低风险 0.54
CDM_260912-163505-950005-954021
2026-09-12T
16:35:14+0000
2.513 km
极远距离
8.134363E-7 极低风险 0.33
Miss Distance Evolution Trend with All Objects
Collision Probability Evolution Trend with All Objects